Home > Weather > Cape Canaveral > Past weeks

Flag for U.S.A. Weather for the Past 2 Weeks in Cape Canaveral, Florida, U.S.A.

Now
63 °F

Passing clouds.


Feels Like: 63 °F
Forecast: 58 / 67 °F
Wind: 5 mph from Northeast

Location: Cape Kennedy

Current Time: Feb 6, 2016 at 7:49:35 AM

Latest Report: Feb 6, 2016 at 6:58 AM


Visibility: 10 mi

Pressure: 30.18 "Hg

Humidity: 70%

Dew point: 53 °F

Location of Cape CanaveralLocation

Historic Weather in Cape Canaveral — Graph

°F

Cape Canaveral Temperature Yesterday

Maximum temperature yesterday: 63 °F (at 8:58 PM)
Minimum temperature yesterday: 48 °F (at 7:58 AM)
Average temperature yesterday: 57 °F

High & Low Weather Summary for the Past Weeks

 TemperatureHumidityPressure
High80 °F (Feb 4, 12:58 PM)100% (Jan 27, 9:55 AM)30.32 "Hg (Jan 27, 9:55 AM)
Low36 °F (Jan 24, 6:58 AM)34% (Jan 29, 2:58 PM)29.67 "Hg (Jan 22, 3:58 PM)
Average61 °F81%30.04 "Hg
* Reported Jan 22 6:58 AM — Feb 6 6:58 AM, Cape Canaveral, Weather by CustomWeather, © 2016

Note: Actual official high and low records may vary slightly from our data, if they occured in-between our weather recording intervals... More about our weather records

Advertising

Cape Canaveral Weather History for the Previous 24 Hours

 ConditionsComfort  
Time TempWeatherWind HumidityBarometerVisibility
6:58 AM
Sat, Feb 6
63 °FPassing clouds.5 mph70%30.18 "Hg10 mi
5:58 AM63 °FPassing clouds.7 mph67%30.15 "Hg10 mi
4:58 AM63 °FPassing clouds.8 mph66%30.14 "Hg10 mi
3:58 AM62 °FPassing clouds.8 mph67%30.14 "Hg10 mi
2:58 AM62 °FClear.7 mph65%30.16 "Hg10 mi
1:58 AM63 °FClear.8 mph67%30.17 "Hg10 mi
12:58 AM63 °FPassing clouds.12 mph65%30.19 "Hg10 mi
11:58 PM
Fri, Feb 5
63 °FPassing clouds.8 mph64%30.21 "Hg10 mi
10:58 PM62 °FPassing clouds.13 mph61%30.22 "Hg10 mi
9:58 PM63 °FPassing clouds.9 mph62%30.23 "Hg10 mi
8:58 PM63 °FMostly cloudy.9 mph61%30.22 "Hg10 mi
7:58 PM62 °FOvercast.9 mph55%30.22 "Hg10 mi
6:58 PM60 °FPassing clouds.12 mph67%30.22 "Hg10 mi
5:58 PM59 °FPartly sunny.12 mph64%30.22 "Hg10 mi
4:58 PM61 °FSunny.14 mph59%30.21 "Hg10 mi
3:58 PM61 °FScattered clouds.12 mph57%30.20 "Hg10 mi
2:58 PM60 °FPartly sunny.18 mph58%30.20 "Hg10 mi
1:58 PM59 °FPartly sunny.17 mph63%30.20 "Hg10 mi
1:03 PM57 °FPartly sunny.17 mph63%30.21 "Hg10 mi
11:58 AM57 °FSunny.18 mph56%30.24 "Hg10 mi
10:58 AM56 °FSunny.22 mph55%30.27 "Hg10 mi
9:58 AM55 °FSunny.23 mph58%30.27 "Hg10 mi
8:58 AM50 °FSunny.18 mph58%30.26 "Hg10 mi
7:58 AM48 °FSunny.14 mph62%30.24 "Hg10 mi
Weather by CustomWeather, © 2016

See weather overviewHow to use our weather pages